Hourly Data Report for October 03, 2016

All times are specified in Local Standard Time (LST). Add 1 hour to adjust for Daylight Saving Time where and when it is observed.

BATHURST A
NEW BRUNSWICK

47°37'47.000" N
65°44'20.000" W
58.80 m
8100505
71574
ZBF

Download Data

Hourly Data (October 2016)
Hourly Data Report for October 3, 2016
Temp Definition
°C
Dew Point Temp Definition
°C
Rel Hum Definition
%
Wind Dir Definition
10's deg

Wind Spd Definition
km/h
Visibility Definition
km
Stn Press Definition
kPa
Hmdx Definition


Wind Chill Definition


Weather Definition


TIME
00:00 Legend Double Dagger 13.2 7.5 68 27 15 24.1 100.38     LegendNANA
01:00 Legend Double Dagger 12.7 7.6 71 26 15 24.1 100.31     LegendNANA
02:00 Legend Double Dagger 13.2 7.3 67 27 14 24.1 100.25     Cloudy
03:00 Legend Double Dagger 13.3 7.1 66 30 13 24.1 100.27     LegendNANA
04:00 Legend Double Dagger 13.4 6.8 64 33 11 24.1 100.38     LegendNANA
05:00 Legend Double Dagger 12.8 7.7 71 1 16 24.1 100.52     Cloudy
06:00 Legend Double Dagger 11.5 6.5 71 1 12 24.1 100.67     LegendNANA
07:00 Legend Double Dagger 10.2 5.6 73 1 14 24.1 100.83     LegendNANA
08:00 Legend Double Dagger 9.0 3.2 67 2 15 24.1 100.98     Mostly Cloudy
09:00 Legend Double Dagger 8.8 1.5 60 3 15 24.1 101.10     LegendNANA
10:00 Legend Double Dagger 9.8 1.5 56 3 17 24.1 101.19     LegendNANA
11:00 Legend Double Dagger 9.2 0.7 55 3 11 24.1 101.25     Mainly Clear
12:00 Legend Double Dagger 10.7 0.5 49 7 15 24.1 101.27     LegendNANA
13:00 Legend Double Dagger 11.1 -1.3 42 34 12 24.1 101.28     LegendNANA
14:00 Legend Double Dagger 11.6 -2.6 37 1 9 24.1 101.31     Clear
15:00 Legend Double Dagger 12.2 -1.3 39 34 5 24.1 101.33     LegendNANA
16:00 Legend Double Dagger 12.4 -1.8 37 32 8 24.1 101.37     LegendNANA
17:00 Legend Double Dagger 11.8 -1.3 40 1 4 24.1 101.41     Clear
18:00 Legend Double Dagger 7.5 2.6 71 36 1 24.1 101.46     LegendNANA
19:00 Legend Double Dagger 3.8 1.8 87 23 6 24.1 101.52     LegendNANA
20:00 Legend Double Dagger 3.5 1.2 85 24 5 24.1 101.62     Clear
21:00 Legend Double Dagger 5.2 1.1 75 30 8 24.1 101.69     LegendNANA
22:00 Legend Double Dagger 5.3 0.7 72 31 9 24.1 101.73     LegendNANA
23:00 Legend Double Dagger 4.0 0.3 77 29 3 24.1 101.77     Clear

Notes on Data Quality.

Legend

  • E = Estimated
  • M = Missing
  • NA = Not Available
  • ‡ = Partner data that is not subject to review by the National Climate Archives
Date modified: